contact: severine.martini@mio.osupytheas.fr, dominique.lefevre@mio.osupytheas.fr
Project:EMSO Ligure-ouest http://www.emso-fr.org/EMSO-France
Sensor Optode, line 4330 Serial 272 
DOI : "https://doi.org/10.17882/97948" 
Title:EMSO Ligure Ouest : Data BathyDock capteur Optode - deploiement "2023-04-28"
Datetime,Profondeur,Latitude,Longitude,optode_type,serial,O2_concentration,O2_saturation,Temperature,Calibrated_Phase,Temp_Compensated_Phase,phase_blue_light,phase_red_light,Amplitude_blue_light,Amplitude_red_light,thermistor_bridge
time,m,degree_north,degree_east,1,1,umol.l-1,%,degree_C,degree,degree,degree,degree,mV,mV,mV
2023-12-21T00:00:07,2420,42.8014,5.9826,4330,272,185.999,57.004,13.340,36.056,36.635,41.225,4.590,295.7,545.0,290.3
2023-12-21T00:03:07,2420,42.8014,5.9826,4330,272,186.218,57.060,13.331,36.045,36.625,41.215,4.590,295.8,545.1,290.5
2023-12-21T00:06:07,2420,42.8014,5.9826,4330,272,186.121,57.038,13.337,36.048,36.628,41.209,4.581,295.7,545.1,290.3
2023-12-21T00:09:07,2420,42.8014,5.9826,4330,272,186.053,57.018,13.338,36.053,36.633,41.216,4.583,295.7,545.1,290.3
2023-12-21T00:12:07,2420,42.8014,5.9826,4330,272,186.086,57.026,13.336,36.052,36.632,41.219,4.588,295.8,545.1,290.4
2023-12-21T00:15:07,2420,42.8014,5.9826,4330,272,186.290,57.091,13.338,36.037,36.617,41.207,4.590,295.7,545.0,290.3
2023-12-21T00:18:07,2420,42.8014,5.9826,4330,272,186.315,57.091,13.332,36.039,36.619,41.201,4.582,295.7,545.0,290.5
2023-12-21T00:21:07,2420,42.8014,5.9826,4330,272,186.031,57.006,13.333,36.056,36.636,41.222,4.586,295.8,545.1,290.5
2023-12-21T00:24:07,2420,42.8014,5.9826,4330,272,186.430,57.124,13.330,36.032,36.612,41.203,4.591,295.7,545.1,290.6
2023-12-21T00:27:08,2420,42.8014,5.9826,4330,272,186.054,57.018,13.338,36.053,36.633,41.221,4.588,295.7,545.1,290.3
2023-12-21T00:30:08,2420,42.8014,5.9826,4330,272,185.874,56.962,13.337,36.065,36.645,41.224,4.579,295.7,545.0,290.4
2023-12-21T00:33:07,2420,42.8014,5.9826,4330,272,186.228,57.069,13.336,36.042,36.622,41.213,4.591,295.7,545.0,290.4
2023-12-21T00:36:07,2420,42.8014,5.9826,4330,272,186.191,57.056,13.334,36.045,36.625,41.211,4.585,295.8,545.0,290.4
2023-12-21T00:39:07,2420,42.8014,5.9826,4330,272,186.200,57.068,13.342,36.041,36.621,41.210,4.589,295.7,545.1,290.2
2023-12-21T00:42:07,2420,42.8014,5.9826,4330,272,186.142,57.046,13.338,36.047,36.627,41.216,4.589,295.8,545.0,290.3
2023-12-21T00:45:07,2420,42.8014,5.9826,4330,272,186.053,57.020,13.340,36.052,36.632,41.219,4.587,295.8,545.0,290.3
2023-12-21T00:48:07,2420,42.8014,5.9826,4330,272,186.412,57.132,13.341,36.028,36.608,41.197,4.589,295.7,545.0,290.2
2023-12-21T00:51:08,2420,42.8014,5.9826,4330,272,185.978,57.001,13.342,36.056,36.636,41.223,4.588,295.7,545.1,290.2
2023-12-21T00:54:08,2420,42.8014,5.9826,4330,272,186.081,57.031,13.341,36.049,36.629,41.212,4.583,295.7,545.0,290.2
2023-12-21T00:57:08,2420,42.8014,5.9826,4330,272,186.299,57.098,13.341,36.035,36.615,41.203,4.588,295.7,545.0,290.2
2023-12-21T01:00:08,2420,42.8014,5.9826,4330,272,186.284,57.087,13.337,36.038,36.618,41.212,4.594,295.7,545.0,290.4
2023-12-21T01:03:07,2420,42.8014,5.9826,4330,272,186.213,57.056,13.329,36.047,36.627,41.213,4.586,295.9,545.1,290.6
2023-12-21T01:06:07,2420,42.8014,5.9826,4330,272,186.545,57.149,13.322,36.028,36.608,41.199,4.591,295.8,545.1,290.8
2023-12-21T01:09:07,2420,42.8014,5.9826,4330,272,186.056,57.009,13.330,36.056,36.636,41.221,4.585,295.8,545.1,290.6
2023-12-21T01:12:07,2420,42.8014,5.9826,4330,272,186.179,57.041,13.326,36.051,36.630,41.218,4.588,295.8,545.2,290.7
2023-12-21T01:15:08,2420,42.8014,5.9826,4330,272,186.193,57.041,13.322,36.051,36.631,41.214,4.583,295.7,545.1,290.8
2023-12-21T01:18:08,2420,42.8014,5.9826,4330,272,186.024,56.993,13.325,36.061,36.641,41.228,4.588,295.8,545.1,290.7
2023-12-21T01:21:08,2420,42.8014,5.9826,4330,272,186.131,57.020,13.321,36.056,36.636,41.224,4.588,295.7,545.1,290.9
2023-12-21T01:24:07,2420,42.8014,5.9826,4330,272,186.348,57.094,13.326,36.039,36.619,41.212,4.593,295.8,545.2,290.7
2023-12-21T01:27:07,2420,42.8014,5.9826,4330,272,186.169,57.054,13.338,36.046,36.625,41.212,4.586,295.7,545.1,290.3
2023-12-21T01:30:07,2420,42.8014,5.9826,4330,272,185.961,56.975,13.326,36.065,36.644,41.233,4.589,295.8,545.1,290.7
2023-12-21T01:33:08,2420,42.8014,5.9826,4330,272,186.031,57.000,13.329,36.058,36.638,41.227,4.589,295.8,545.1,290.6
2023-12-21T01:36:07,2420,42.8014,5.9826,4330,272,186.275,57.074,13.328,36.043,36.623,41.214,4.591,295.8,545.1,290.6
2023-12-21T01:39:07,2420,42.8014,5.9826,4330,272,186.114,57.023,13.327,36.055,36.635,41.227,4.593,295.8,545.2,290.7
2023-12-21T01:42:07,2420,42.8014,5.9826,4330,272,186.020,56.995,13.327,36.060,36.640,41.225,4.585,295.8,545.1,290.7
2023-12-21T01:45:07,2420,42.8014,5.9826,4330,272,186.004,56.993,13.330,36.060,36.640,41.229,4.589,295.8,545.2,290.6
2023-12-21T01:48:07,2420,42.8014,5.9826,4330,272,186.155,57.037,13.328,36.051,36.631,41.215,4.584,295.8,545.1,290.6
2023-12-21T01:51:08,2420,42.8014,5.9826,4330,272,186.098,57.019,13.328,36.055,36.635,41.225,4.590,295.8,545.1,290.6
2023-12-21T01:54:08,2420,42.8014,5.9826,4330,272,186.113,57.024,13.328,36.054,36.634,41.226,4.592,295.8,545.1,290.6
2023-12-21T01:57:08,2420,42.8014,5.9826,4330,272,186.182,57.051,13.333,36.047,36.627,41.220,4.593,295.9,545.1,290.5
2023-12-21T02:00:07,2420,42.8014,5.9826,4330,272,186.211,57.053,13.327,36.048,36.628,41.219,4.591,295.8,545.1,290.7
2023-12-21T02:03:07,2420,42.8014,5.9826,4330,272,186.187,57.046,13.327,36.049,36.629,41.216,4.587,295.8,545.1,290.7
2023-12-21T02:06:07,2420,42.8014,5.9826,4330,272,186.093,57.017,13.327,36.055,36.635,41.222,4.587,295.9,545.2,290.7
2023-12-21T02:09:08,2420,42.8014,5.9826,4330,272,186.065,57.010,13.329,36.057,36.637,41.221,4.584,295.8,545.1,290.6
2023-12-21T02:12:08,2420,42.8014,5.9826,4330,272,186.066,57.010,13.329,36.056,36.636,41.224,4.588,295.8,545.1,290.6
2023-12-21T02:15:08,2420,42.8014,5.9826,4330,272,186.101,57.019,13.327,36.055,36.635,41.225,4.590,295.8,545.1,290.7
2023-12-21T02:18:08,2420,42.8014,5.9826,4330,272,185.954,56.974,13.327,36.065,36.645,41.230,4.585,295.8,545.1,290.7
2023-12-21T02:21:07,2420,42.8014,5.9826,4330,272,186.346,57.089,13.323,36.041,36.621,41.215,4.594,295.8,545.2,290.8
2023-12-21T02:24:07,2420,42.8014,5.9826,4330,272,186.129,57.023,13.323,36.055,36.635,41.220,4.584,295.8,545.1,290.8
2023-12-21T02:27:07,2420,42.8014,5.9826,4330,272,186.156,57.031,13.323,36.054,36.633,41.221,4.588,295.8,545.1,290.8
2023-12-21T02:30:08,2420,42.8014,5.9826,4330,272,186.298,57.075,13.323,36.044,36.624,41.208,4.584,295.8,545.1,290.8
2023-12-21T02:33:07,2420,42.8014,5.9826,4330,272,186.316,57.077,13.321,36.044,36.624,41.209,4.585,295.8,545.2,290.9
2023-12-21T02:36:07,2420,42.8014,5.9826,4330,272,186.249,57.055,13.319,36.049,36.629,41.214,4.585,295.8,545.2,290.9
2023-12-21T02:39:07,2420,42.8014,5.9826,4330,272,186.060,56.995,13.318,36.062,36.642,41.230,4.589,295.7,545.2,291.0
2023-12-21T02:42:08,2420,42.8014,5.9826,4330,272,186.192,57.038,13.320,36.052,36.632,41.218,4.585,295.8,545.2,290.9
2023-12-21T02:45:08,2420,42.8014,5.9826,4330,272,186.301,57.069,13.318,36.047,36.627,41.219,4.593,295.8,545.2,291.0
2023-12-21T02:48:07,2420,42.8014,5.9826,4330,272,186.222,57.045,13.318,36.052,36.632,41.213,4.582,295.8,545.1,291.0
2023-12-21T02:51:07,2420,42.8014,5.9826,4330,272,186.249,57.055,13.319,36.049,36.629,41.218,4.589,295.7,545.2,290.9
2023-12-21T02:54:07,2420,42.8014,5.9826,4330,272,186.308,57.069,13.317,36.046,36.626,41.212,4.586,295.8,545.2,291.0
2023-12-21T02:57:07,2420,42.8014,5.9826,4330,272,186.219,57.038,13.313,36.054,36.634,41.221,4.587,295.8,545.2,291.1
2023-12-21T03:00:08,2420,42.8014,5.9826,4330,272,186.300,57.063,13.314,36.048,36.628,41.215,4.587,295.9,545.3,291.1
2023-12-21T03:03:07,2420,42.8014,5.9826,4330,272,186.298,57.061,13.313,36.049,36.629,41.216,4.587,295.7,545.3,291.1
2023-12-21T03:06:07,2420,42.8014,5.9826,4330,272,186.358,57.081,13.314,36.045,36.625,41.216,4.591,295.8,545.3,291.1
2023-12-21T03:09:07,2420,42.8014,5.9826,4330,272,186.515,57.128,13.313,36.035,36.615,41.206,4.591,295.8,545.3,291.1
2023-12-21T03:12:08,2420,42.8014,5.9826,4330,272,186.562,57.146,13.315,36.030,36.611,41.199,4.588,295.8,545.2,291.1
2023-12-21T03:15:08,2420,42.8014,5.9826,4330,272,186.341,57.075,13.313,36.046,36.626,41.213,4.587,295.8,545.3,291.1
2023-12-21T03:18:07,2420,42.8014,5.9826,4330,272,186.344,57.075,13.313,36.046,36.626,41.216,4.590,295.8,545.2,291.1
2023-12-21T03:21:07,2420,42.8014,5.9826,4330,272,186.245,57.046,13.313,36.052,36.632,41.221,4.589,295.8,545.2,291.1
2023-12-21T03:24:07,2420,42.8014,5.9826,4330,272,186.438,57.110,13.317,36.037,36.617,41.209,4.592,295.8,545.2,291.0
2023-12-21T03:27:07,2420,42.8014,5.9826,4330,272,186.429,57.104,13.315,36.040,36.620,41.207,4.587,295.7,545.2,291.1
2023-12-21T03:30:08,2420,42.8014,5.9826,4330,272,186.319,57.068,13.312,36.048,36.628,41.215,4.588,295.8,545.3,291.1
2023-12-21T03:33:07,2420,42.8014,5.9826,4330,272,186.543,57.135,13.312,36.033,36.614,41.204,4.590,295.8,545.3,291.2
2023-12-21T03:36:07,2420,42.8014,5.9826,4330,272,186.034,56.977,13.310,36.067,36.647,41.232,4.585,295.8,545.2,291.2
2023-12-21T03:39:07,2420,42.8014,5.9826,4330,272,186.257,57.045,13.310,36.053,36.633,41.218,4.585,295.8,545.3,291.2
2023-12-21T03:42:08,2420,42.8014,5.9826,4330,272,186.217,57.035,13.311,36.055,36.635,41.220,4.585,295.9,545.3,291.2
2023-12-21T03:45:08,2420,42.8014,5.9826,4330,272,186.213,57.033,13.311,36.055,36.635,41.225,4.590,295.8,545.2,291.2
2023-12-21T03:48:07,2420,42.8014,5.9826,4330,272,186.180,57.024,13.312,36.057,36.637,41.228,4.591,295.8,545.3,291.2
2023-12-21T03:51:07,2420,42.8014,5.9826,4330,272,186.271,57.052,13.312,36.051,36.631,41.221,4.590,295.8,545.2,291.2
2023-12-21T03:54:07,2420,42.8014,5.9826,4330,272,186.047,56.982,13.311,36.067,36.646,41.229,4.583,295.7,545.3,291.2
2023-12-21T03:57:07,2420,42.8014,5.9826,4330,272,186.044,56.982,13.312,36.066,36.646,41.235,4.589,295.8,545.2,291.2
2023-12-21T04:00:07,2420,42.8014,5.9826,4330,272,186.242,57.043,13.312,36.053,36.633,41.222,4.588,295.8,545.2,291.2
2023-12-21T04:03:07,2420,42.8014,5.9826,4330,272,186.300,57.058,13.310,36.050,36.630,41.221,4.590,295.8,545.3,291.2
2023-12-21T04:06:07,2420,42.8014,5.9826,4330,272,186.238,57.041,13.311,36.054,36.634,41.224,4.590,295.8,545.3,291.2
2023-12-21T04:09:08,2420,42.8014,5.9826,4330,272,186.376,57.082,13.310,36.045,36.625,41.211,4.586,295.8,545.2,291.2
2023-12-21T04:12:08,2420,42.8014,5.9826,4330,272,186.016,56.972,13.311,36.068,36.648,41.231,4.583,295.8,545.3,291.2
2023-12-21T04:15:08,2420,42.8014,5.9826,4330,272,186.246,57.043,13.311,36.054,36.634,41.223,4.589,295.8,545.3,291.2
2023-12-21T04:18:08,2420,42.8014,5.9826,4330,272,186.155,57.017,13.312,36.058,36.638,41.228,4.590,295.9,545.2,291.2
2023-12-21T04:21:07,2420,42.8014,5.9826,4330,272,186.206,57.036,13.315,36.054,36.634,41.223,4.588,295.8,545.3,291.1
2023-12-21T04:24:07,2420,42.8014,5.9826,4330,272,186.290,57.062,13.315,36.049,36.629,41.217,4.588,295.9,545.3,291.1
2023-12-21T04:27:07,2420,42.8014,5.9826,4330,272,186.223,57.039,13.313,36.054,36.634,41.225,4.591,295.8,545.1,291.1
2023-12-21T04:30:07,2420,42.8014,5.9826,4330,272,186.301,57.064,13.314,36.048,36.628,41.215,4.587,295.8,545.3,291.1
2023-12-21T04:33:07,2420,42.8014,5.9826,4330,272,186.249,57.047,13.313,36.052,36.632,41.216,4.584,295.9,545.3,291.1
2023-12-21T04:36:07,2420,42.8014,5.9826,4330,272,186.349,57.075,13.311,36.047,36.627,41.214,4.587,295.8,545.2,291.2
2023-12-21T04:39:07,2420,42.8014,5.9826,4330,272,186.127,57.003,13.308,36.062,36.642,41.230,4.588,295.8,545.3,291.3
2023-12-21T04:42:07,2420,42.8014,5.9826,4330,272,186.277,57.048,13.307,36.053,36.633,41.217,4.584,295.8,545.3,291.3
2023-12-21T04:45:08,2420,42.8014,5.9826,4330,272,186.361,57.077,13.310,36.046,36.626,41.216,4.590,295.8,545.2,291.2
2023-12-21T04:48:08,2420,42.8014,5.9826,4330,272,186.169,57.017,13.309,36.060,36.640,41.226,4.587,295.8,545.2,291.3
2023-12-21T04:51:08,2420,42.8014,5.9826,4330,272,186.506,57.123,13.311,36.036,36.616,41.209,4.592,295.8,545.2,291.2
2023-12-21T04:54:08,2420,42.8014,5.9826,4330,272,185.987,56.965,13.311,36.070,36.650,41.239,4.589,295.9,545.3,291.2
2023-12-21T04:57:07,2420,42.8014,5.9826,4330,272,186.523,57.122,13.306,36.037,36.617,41.212,4.595,295.8,545.3,291.4
2023-12-21T05:00:07,2420,42.8014,5.9826,4330,272,186.381,57.079,13.306,36.047,36.627,41.213,4.587,295.8,545.3,291.3
2023-12-21T05:03:08,2420,42.8014,5.9826,4330,272,186.366,57.078,13.309,36.046,36.626,41.213,4.587,295.9,545.3,291.2
2023-12-21T05:06:07,2420,42.8014,5.9826,4330,272,186.393,57.085,13.308,36.045,36.625,41.214,4.589,295.8,545.3,291.3
2023-12-21T05:09:07,2420,42.8014,5.9826,4330,272,186.332,57.067,13.309,36.049,36.629,41.216,4.587,295.7,545.2,291.3
2023-12-21T05:12:07,2420,42.8014,5.9826,4330,272,186.590,57.143,13.306,36.033,36.613,41.201,4.588,295.8,545.2,291.3
2023-12-21T05:15:08,2420,42.8014,5.9826,4330,272,186.346,57.070,13.308,36.048,36.628,41.212,4.585,295.8,545.3,291.3
2023-12-21T05:18:08,2420,42.8014,5.9826,4330,272,186.457,57.103,13.307,36.042,36.622,41.209,4.587,295.8,545.3,291.3
2023-12-21T05:21:07,2420,42.8014,5.9826,4330,272,186.420,57.095,13.310,36.043,36.623,41.213,4.590,295.8,545.2,291.2
2023-12-21T05:24:07,2420,42.8014,5.9826,4330,272,186.267,57.047,13.309,36.053,36.633,41.224,4.591,295.8,545.3,291.3
2023-12-21T05:27:07,2420,42.8014,5.9826,4330,272,186.293,57.054,13.308,36.052,36.632,41.221,4.590,295.9,545.3,291.3
2023-12-21T05:30:07,2420,42.8014,5.9826,4330,272,186.202,57.028,13.310,36.057,36.637,41.226,4.590,295.7,545.2,291.2
2023-12-21T05:33:07,2420,42.8014,5.9826,4330,272,186.509,57.122,13.309,36.037,36.617,41.210,4.592,295.7,545.3,291.2
2023-12-21T05:36:07,2420,42.8014,5.9826,4330,272,186.368,57.078,13.309,36.046,36.626,41.212,4.586,295.8,545.3,291.3
2023-12-21T05:39:08,2420,42.8014,5.9826,4330,272,186.257,57.046,13.311,36.052,36.632,41.221,4.589,295.8,545.3,291.2
2023-12-21T05:42:08,2420,42.8014,5.9826,4330,272,186.349,57.074,13.311,36.047,36.626,41.216,4.589,295.8,545.2,291.2
2023-12-21T05:45:08,2420,42.8014,5.9826,4330,272,186.393,57.085,13.308,36.045,36.625,41.216,4.591,295.8,545.3,291.3
2023-12-21T05:48:08,2420,42.8014,5.9826,4330,272,186.454,57.103,13.308,36.041,36.621,41.209,4.588,295.8,545.3,291.3
2023-12-21T05:51:07,2420,42.8014,5.9826,4330,272,186.584,57.142,13.307,36.033,36.614,41.201,4.588,295.7,545.3,291.3
2023-12-21T05:54:08,2420,42.8014,5.9826,4330,272,186.275,57.052,13.311,36.052,36.631,41.220,4.588,295.8,545.3,291.2
2023-12-21T05:57:08,2420,42.8014,5.9826,4330,272,186.378,57.081,13.309,36.046,36.626,41.213,4.587,295.8,545.3,291.3
2023-12-21T06:00:07,2420,42.8014,5.9826,4330,272,186.387,57.086,13.310,36.045,36.625,41.212,4.587,295.8,545.3,291.2
2023-12-21T06:03:07,2420,42.8014,5.9826,4330,272,186.351,57.072,13.308,36.047,36.627,41.217,4.590,295.8,545.3,291.3
2023-12-21T06:06:07,2420,42.8014,5.9826,4330,272,186.472,57.106,13.306,36.041,36.621,41.201,4.580,295.7,545.3,291.3
2023-12-21T06:09:07,2420,42.8014,5.9826,4330,272,186.175,57.015,13.306,36.061,36.640,41.224,4.584,295.8,545.3,291.4
2023-12-21T06:12:08,2420,42.8014,5.9826,4330,272,186.505,57.115,13.305,36.039,36.619,41.209,4.590,295.7,545.3,291.4
2023-12-21T06:15:07,2420,42.8014,5.9826,4330,272,186.469,57.106,13.307,36.041,36.621,41.206,4.586,295.8,545.3,291.3
2023-12-21T06:18:07,2420,42.8014,5.9826,4330,272,186.357,57.074,13.308,36.047,36.627,41.218,4.591,295.8,545.3,291.3
2023-12-21T06:21:07,2420,42.8014,5.9826,4330,272,186.203,57.023,13.305,36.059,36.638,41.228,4.590,295.8,545.3,291.4
2023-12-21T06:24:08,2420,42.8014,5.9826,4330,272,186.425,57.092,13.306,36.044,36.624,41.212,4.588,295.8,545.3,291.4
2023-12-21T06:27:08,2420,42.8014,5.9826,4330,272,186.457,57.103,13.308,36.041,36.621,41.209,4.588,295.8,545.3,291.3
2023-12-21T06:30:08,2420,42.8014,5.9826,4330,272,186.341,57.067,13.307,36.049,36.629,41.217,4.588,295.8,545.3,291.3
2023-12-21T06:33:07,2420,42.8014,5.9826,4330,272,186.174,57.014,13.305,36.060,36.640,41.222,4.582,295.8,545.2,291.4
2023-12-21T06:36:07,2420,42.8014,5.9826,4330,272,186.570,57.137,13.307,36.034,36.614,41.201,4.587,295.7,545.3,291.3
2023-12-21T06:39:07,2420,42.8014,5.9826,4330,272,186.230,57.036,13.309,36.055,36.635,41.222,4.587,295.7,545.3,291.2
2023-12-21T06:42:07,2420,42.8014,5.9826,4330,272,186.304,57.058,13.308,36.050,36.630,41.220,4.590,295.8,545.2,291.3
2023-12-21T06:45:08,2420,42.8014,5.9826,4330,272,186.276,57.047,13.307,36.053,36.633,41.219,4.586,295.8,545.3,291.3
2023-12-21T06:48:08,2420,42.8014,5.9826,4330,272,186.316,57.059,13.307,36.051,36.631,41.220,4.589,295.8,545.3,291.3
2023-12-21T06:51:08,2420,42.8014,5.9826,4330,272,186.523,57.122,13.307,36.037,36.617,41.207,4.590,295.7,545.2,291.3
2023-12-21T06:54:08,2420,42.8014,5.9826,4330,272,186.250,57.040,13.308,36.055,36.635,41.221,4.586,295.8,545.3,291.3
2023-12-21T06:57:07,2420,42.8014,5.9826,4330,272,186.199,57.026,13.309,36.058,36.638,41.225,4.587,295.8,545.3,291.3
2023-12-21T07:00:07,2420,42.8014,5.9826,4330,272,186.267,57.045,13.307,36.054,36.634,41.221,4.587,295.8,545.3,291.3
2023-12-21T07:03:07,2420,42.8014,5.9826,4330,272,186.265,57.043,13.306,36.055,36.635,41.218,4.584,295.8,545.3,291.4
2023-12-21T07:06:07,2420,42.8014,5.9826,4330,272,186.405,57.088,13.308,36.044,36.624,41.210,4.586,295.8,545.3,291.3
2023-12-21T07:09:07,2420,42.8014,5.9826,4330,272,186.348,57.069,13.307,36.049,36.629,41.216,4.587,295.8,545.2,291.3
2023-12-21T07:12:07,2420,42.8014,5.9826,4330,272,186.330,57.064,13.307,36.050,36.629,41.218,4.589,295.8,545.3,291.3
2023-12-21T07:15:07,2420,42.8014,5.9826,4330,272,186.317,57.059,13.306,36.051,36.630,41.218,4.588,295.8,545.3,291.3
2023-12-21T07:18:07,2420,42.8014,5.9826,4330,272,186.445,57.099,13.307,36.042,36.622,41.210,4.588,295.8,545.3,291.3
2023-12-21T07:21:08,2420,42.8014,5.9826,4330,272,186.471,57.107,13.307,36.041,36.621,41.212,4.591,295.8,545.3,291.3
2023-12-21T07:24:08,2420,42.8014,5.9826,4330,272,186.249,57.040,13.307,36.055,36.635,41.223,4.587,295.8,545.3,291.3
2023-12-21T07:27:08,2420,42.8014,5.9826,4330,272,186.417,57.090,13.307,36.044,36.624,41.209,4.585,295.8,545.3,291.3
2023-12-21T07:30:08,2420,42.8014,5.9826,4330,272,186.259,57.041,13.306,36.055,36.635,41.218,4.583,295.8,545.3,291.3
2023-12-21T07:33:07,2420,42.8014,5.9826,4330,272,186.554,57.131,13.306,36.035,36.615,41.207,4.592,295.8,545.3,291.3
2023-12-21T07:36:07,2420,42.8014,5.9826,4330,272,186.529,57.123,13.306,36.038,36.618,41.203,4.585,295.8,545.3,291.4
2023-12-21T07:39:07,2420,42.8014,5.9826,4330,272,186.295,57.054,13.308,36.051,36.631,41.223,4.592,295.8,545.3,291.3
2023-12-21T07:42:08,2420,42.8014,5.9826,4330,272,186.287,57.054,13.310,36.051,36.631,41.219,4.589,295.8,545.3,291.2
2023-12-21T07:45:08,2420,42.8014,5.9826,4330,272,186.284,57.052,13.309,36.052,36.632,41.221,4.589,295.8,545.3,291.3
2023-12-21T07:48:08,2420,42.8014,5.9826,4330,272,186.207,57.025,13.306,36.059,36.639,41.222,4.583,295.8,545.2,291.4
2023-12-21T07:51:07,2420,42.8014,5.9826,4330,272,186.505,57.117,13.307,36.038,36.618,41.211,4.593,295.8,545.3,291.3
2023-12-21T07:54:07,2420,42.8014,5.9826,4330,272,186.242,57.035,13.306,36.056,36.636,41.219,4.583,295.7,545.3,291.4
2023-12-21T07:57:07,2420,42.8014,5.9826,4330,272,186.221,57.033,13.309,36.056,36.636,41.228,4.592,295.8,545.3,291.3
2023-12-21T08:00:07,2420,42.8014,5.9826,4330,272,186.375,57.078,13.307,36.047,36.627,41.217,4.589,295.8,545.3,291.3
2023-12-21T08:03:08,2420,42.8014,5.9826,4330,272,186.298,57.053,13.306,36.053,36.633,41.225,4.593,295.8,545.3,291.4
2023-12-21T08:06:07,2420,42.8014,5.9826,4330,272,186.323,57.060,13.306,36.051,36.631,41.218,4.587,295.7,545.3,291.4
2023-12-21T08:09:07,2420,42.8014,5.9826,4330,272,186.369,57.073,13.305,36.048,36.628,41.220,4.592,295.7,545.3,291.4
2023-12-21T08:12:07,2420,42.8014,5.9826,4330,272,186.542,57.126,13.305,36.037,36.617,41.208,4.591,295.8,545.3,291.4
2023-12-21T08:15:07,2420,42.8014,5.9826,4330,272,186.177,57.015,13.306,36.060,36.640,41.228,4.588,295.7,545.3,291.4
2023-12-21T08:18:07,2420,42.8014,5.9826,4330,272,186.422,57.090,13.305,36.044,36.624,41.216,4.592,295.8,545.3,291.4
2023-12-21T08:21:07,2420,42.8014,5.9826,4330,272,186.577,57.138,13.306,36.034,36.614,41.206,4.592,295.7,545.3,291.4
2023-12-21T08:24:07,2420,42.8014,5.9826,4330,272,186.336,57.065,13.306,36.050,36.630,41.218,4.588,295.8,545.3,291.3
2023-12-21T08:27:07,2420,42.8014,5.9826,4330,272,186.553,57.135,13.309,36.035,36.615,41.205,4.591,295.8,545.3,291.3
2023-12-21T08:30:07,2420,42.8014,5.9826,4330,272,186.293,57.052,13.307,36.052,36.632,41.223,4.591,295.7,545.3,291.3
2023-12-21T08:33:07,2420,42.8014,5.9826,4330,272,186.186,57.021,13.308,36.059,36.639,41.235,4.596,295.8,545.3,291.3
2023-12-21T08:36:07,2420,42.8014,5.9826,4330,272,186.241,57.035,13.306,36.056,36.636,41.227,4.591,295.8,545.3,291.4
2023-12-21T08:39:07,2420,42.8014,5.9826,4330,272,186.412,57.088,13.306,36.045,36.625,41.212,4.587,295.8,545.3,291.3
2023-12-21T08:42:08,2420,42.8014,5.9826,4330,272,186.345,57.067,13.306,36.049,36.629,41.219,4.590,295.7,545.4,291.4
2023-12-21T08:45:08,2420,42.8014,5.9826,4330,272,186.304,57.057,13.308,36.051,36.631,41.223,4.592,295.9,545.3,291.3
2023-12-21T08:48:08,2420,42.8014,5.9826,4330,272,186.460,57.108,13.311,36.040,36.620,41.208,4.588,295.8,545.3,291.2
2023-12-21T08:51:08,2420,42.8014,5.9826,4330,272,186.452,57.100,13.306,36.042,36.622,41.208,4.586,295.8,545.3,291.3
2023-12-21T08:54:07,2420,42.8014,5.9826,4330,272,186.289,57.051,13.306,36.053,36.633,41.221,4.588,295.8,545.3,291.3
2023-12-21T08:57:07,2420,42.8014,5.9826,4330,272,186.230,57.036,13.309,36.055,36.635,41.222,4.587,295.8,545.4,291.3
2023-12-21T09:00:07,2420,42.8014,5.9826,4330,272,186.626,57.151,13.304,36.032,36.612,41.200,4.588,295.7,545.4,291.4
2023-12-21T09:03:07,2420,42.8014,5.9826,4330,272,186.493,57.112,13.305,36.039,36.619,41.210,4.590,295.7,545.3,291.4
2023-12-21T09:06:07,2420,42.8014,5.9826,4330,272,186.404,57.087,13.307,36.045,36.625,41.212,4.588,295.7,545.2,291.3
2023-12-21T09:09:07,2420,42.8014,5.9826,4330,272,186.346,57.067,13.305,36.050,36.629,41.218,4.588,295.8,545.3,291.4
2023-12-21T09:12:07,2420,42.8014,5.9826,4330,272,186.334,57.063,13.305,36.050,36.630,41.215,4.584,295.8,545.3,291.4
2023-12-21T09:15:07,2420,42.8014,5.9826,4330,272,186.511,57.120,13.308,36.037,36.618,41.206,4.589,295.8,545.2,291.3
2023-12-21T09:18:08,2420,42.8014,5.9826,4330,272,186.368,57.074,13.305,36.048,36.628,41.218,4.590,295.8,545.3,291.4
2023-12-21T09:21:08,2420,42.8014,5.9826,4330,272,186.436,57.095,13.306,36.043,36.623,41.208,4.584,295.7,545.3,291.4
2023-12-21T09:24:07,2420,42.8014,5.9826,4330,272,186.261,57.043,13.307,36.054,36.634,41.223,4.589,295.7,545.2,291.3
2023-12-21T09:27:07,2420,42.8014,5.9826,4330,272,186.179,57.022,13.311,36.058,36.637,41.221,4.584,295.7,545.3,291.2
2023-12-21T09:30:07,2420,42.8014,5.9826,4330,272,186.495,57.115,13.307,36.039,36.619,41.212,4.593,295.8,545.3,291.3
2023-12-21T09:33:07,2420,42.8014,5.9826,4330,272,186.494,57.113,13.306,36.039,36.619,41.208,4.588,295.7,545.3,291.3
2023-12-21T09:36:07,2420,42.8014,5.9826,4330,272,186.472,57.107,13.307,36.040,36.620,41.210,4.589,295.7,545.3,291.3
2023-12-21T09:39:07,2420,42.8014,5.9826,4330,272,186.340,57.066,13.306,36.050,36.630,41.220,4.591,295.7,545.2,291.4
2023-12-21T09:42:08,2420,42.8014,5.9826,4330,272,186.234,57.032,13.305,36.057,36.636,41.220,4.584,295.8,545.3,291.4
2023-12-21T09:45:08,2420,42.8014,5.9826,4330,272,186.490,57.110,13.305,36.040,36.620,41.208,4.587,295.8,545.3,291.4
2023-12-21T09:48:08,2420,42.8014,5.9826,4330,272,186.441,57.096,13.306,36.043,36.623,41.209,4.586,295.8,545.3,291.4
2023-12-21T09:51:08,2420,42.8014,5.9826,4330,272,186.347,57.069,13.307,36.049,36.629,41.218,4.589,295.7,545.3,291.3
2023-12-21T09:54:07,2420,42.8014,5.9826,4330,272,186.387,57.083,13.308,36.046,36.626,41.216,4.590,295.7,545.3,291.3
2023-12-21T09:57:07,2420,42.8014,5.9826,4330,272,186.369,57.075,13.307,36.048,36.627,41.217,4.589,295.8,545.3,291.3
2023-12-21T10:00:07,2420,42.8014,5.9826,4330,272,186.441,57.097,13.306,36.043,36.623,41.210,4.587,295.8,545.3,291.4